Regional Weather Roundup
Issued by NWS

Home | Current Version | Previous Version | Graphics & Text | Print | Product List | Glossary On
Versions: 1 2 3 4 5 6 7 8 9 10 11 12 13 14 15 16 17 18 19 20 21 22 23 24 25 26 27 28 29 30 31 32 33 34 35 36 37 38 39 40 41 42 43 44 45 46 47 48 49 50
000
ASUS43 KFSD 210710
RWRSD

WEATHER ROUNDUP FOR SOUTH DAKOTA
NATIONAL WEATHER SERVICE SIOUX FALLS SD
200 AM CDT MON APR 21 2014

NOTE: "FAIR" INDICATES FEW OR NO CLOUDS BELOW 12,000 FEET WITH NO
SIGNIFICANT WEATHER AND/OR OBSTRUCTIONS TO VISIBILITY.


SDZ001>005-009-010-012>017-210800-
NORTHWEST AND NORTH CENTRAL SOUTH DAKOTA

CITY           SKY/WX    TMP DP  RH WIND       PRES   REMARKS
BUFFALO          N/A     40  22  48 W6        30.09R
FAITH            N/A     42  25  50 W8        30.12R
MOBRIDGE       CLEAR     46  26  45 NW12      30.04R
$$

SDZ012>016-024>037-041>051-057-063-072>074-210800-
SOUTHWEST AND SOUTH CENTRAL SOUTH DAKOTA

CITY           SKY/WX    TMP DP  RH WIND       PRES   REMARKS
RAPID CTY ARPT CLEAR     43  24  47 NW13      30.15R
PIERRE         CLEAR     50  28  42 N18       30.04R
CUSTER         CLEAR     45  15  30 N7        30.19R
ELLSWORTH AFB  CLEAR     46  23  40 NW15      30.15R
PHILIP         CLEAR     43  27  53 NW9       30.11R
PINE RIDGE     CLEAR     48  28  46 NE5       30.16R
SPEARFISH      FAIR      41  23  48 W7        30.20R
WINNER         FAIR      52  31  44 NW9       30.05R
$$

SDZ004>011-016>023-039-040-210800-
NORTHEAST SOUTH DAKOTA

CITY           SKY/WX    TMP DP  RH WIND       PRES   REMARKS
ABERDEEN       CLOUDY    54  32  43 N12       30.01R
WATERTOWN      MOCLDY    56  41  57 N9G25     29.96R
SISSETON         N/A     51  37  58 N13       29.96R
$$

SDZ017-020-022-023-036>040-048>070-210800-
SOUTHEAST SOUTH DAKOTA

CITY           SKY/WX    TMP DP  RH WIND       PRES   REMARKS
SIOUX FALLS    CLOUDY    60  50  69 W5        29.89R
HURON          PTCLDY    55  36  48 N16       29.96R
CHAMBERLAIN      N/A     59  31  34 N16       30.02R
MITCHELL       CLOUDY    59  41  51 W8        29.95R
YANKTON        MOCLDY    63  54  72 SW5       29.90F
$$

ABBREVIATIONS USED IN REMARKS
   TC - TEMPERATURE IN CELSIUS
  WCI - WIND CHILL INDEX
   HX - HEAT INDEX
  VSB - VISIBILITY




USA.gov is the U.S. government's official web portal to all federal, state and local government web resources and services.